Time,TemperatureF,DewpointF,PressureIn,WindDirection,WindDirectionDegrees,WindSpeedMPH,WindSpeedGustMPH,Humidity,HourlyPrecipIn,Conditions,Clouds,dailyrainin,SoftwareType,DateUTC
2013-08-12 07:24:00,82.0,0.0,29.98,SSE,166,6.0,14.0,26,-99.99,,,-99.99,,2013-08-12 14:24:00,
2013-08-12 07:52:00,71.0,0.0,29.94,SE,132,1.0,2.0,32,-99.99,,,-99.99,,2013-08-12 14:52:00,
2013-08-12 08:00:00,71.0,0.0,29.94,ESE,119,1.0,2.0,34,-99.99,,,-99.99,,2013-08-12 15:00:00,
2013-08-12 08:08:00,72.0,0.0,29.95,South,177,1.0,2.0,36,-99.99,,,-99.99,,2013-08-12 15:08:00,
2013-08-12 08:16:00,73.0,0.0,29.95,SSW,192,2.0,3.0,31,-99.99,,,-99.99,,2013-08-12 15:16:00,
2013-08-12 08:24:00,74.0,0.0,29.95,SSW,206,2.0,3.0,31,-99.99,,,-99.99,,2013-08-12 15:24:00,
2013-08-12 08:32:00,75.0,0.0,29.95,SSE,163,3.0,3.0,31,-99.99,,,-99.99,,2013-08-12 15:32:00,
2013-08-12 08:40:00,77.0,0.0,29.95,SE,146,3.0,6.0,29,-99.99,,,-99.99,,2013-08-12 15:40:00,
2013-08-12 08:44:00,77.0,0.0,29.95,SE,135,3.0,7.0,32,-99.99,,,-99.99,,2013-08-12 15:44:00,
2013-08-12 08:52:00,77.0,0.0,29.95,South,174,5.0,7.0,30,-99.99,,,-99.99,,2013-08-12 15:52:00,
2013-08-12 09:00:00,77.0,0.0,29.95,SSE,157,5.0,9.0,28,-99.99,,,-99.99,,2013-08-12 16:00:00,
2013-08-12 09:08:00,78.0,0.0,29.95,South,178,6.0,7.0,29,-99.99,,,-99.99,,2013-08-12 16:08:00,
2013-08-12 09:32:00,81.0,0.0,29.95,South,171,5.0,7.0,26,-99.99,,,-99.99,,2013-08-12 16:32:00,
2013-08-12 09:40:00,81.0,0.0,29.95,South,172,7.0,8.0,28,-99.99,,,-99.99,,2013-08-12 16:40:00,
2013-08-12 09:48:00,82.0,0.0,29.95,SSE,158,3.0,9.0,27,-99.99,,,-99.99,,2013-08-12 16:48:00,
2013-08-12 09:56:00,82.0,0.0,29.95,SSE,165,3.0,9.0,26,-99.99,,,-99.99,,2013-08-12 16:56:00,
2013-08-12 10:04:00,83.0,0.0,29.95,SE,145,5.0,7.0,27,-99.99,,,-99.99,,2013-08-12 17:04:00,
2013-08-12 10:12:00,85.0,0.0,29.95,South,183,7.0,10.0,24,-99.99,,,-99.99,,2013-08-12 17:12:00,
2013-08-12 10:20:00,85.0,0.0,29.96,ESE,118,7.0,10.0,26,-99.99,,,-99.99,,2013-08-12 17:20:00,
2013-08-12 10:28:00,86.0,0.0,29.96,SSE,148,10.0,10.0,23,-99.99,,,-99.99,,2013-08-12 17:28:00,
2013-08-12 10:36:00,86.0,0.0,29.96,SSW,204,7.0,12.0,24,-99.99,,,-99.99,,2013-08-12 17:36:00,
2013-08-12 10:44:00,87.0,0.0,29.96,SSW,195,7.0,10.0,22,-99.99,,,-99.99,,2013-08-12 17:44:00,
2013-08-12 10:52:00,88.0,0.0,29.96,SSE,162,7.0,10.0,23,-99.99,,,-99.99,,2013-08-12 17:52:00,
2013-08-12 11:00:00,89.0,0.0,29.96,South,179,5.0,12.0,23,-99.99,,,-99.99,,2013-08-12 18:00:00,
2013-08-12 11:08:00,89.0,0.0,29.96,ESE,109,6.0,10.0,21,-99.99,,,-99.99,,2013-08-12 18:08:00,
2013-08-12 11:16:00,89.0,0.0,29.96,ESE,112,2.0,12.0,19,-99.99,,,-99.99,,2013-08-12 18:16:00,
2013-08-12 11:24:00,89.0,0.0,29.96,SSE,156,8.0,10.0,19,-99.99,,,-99.99,,2013-08-12 18:24:00,
2013-08-12 11:32:00,91.0,0.0,29.95,SE,135,7.0,9.0,19,-99.99,,,-99.99,,2013-08-12 18:32:00,
2013-08-12 11:40:00,92.0,0.0,29.95,ENE,66,1.0,10.0,19,-99.99,,,-99.99,,2013-08-12 18:40:00,
2013-08-12 11:48:00,90.0,0.0,29.95,ESE,108,3.0,9.0,19,-99.99,,,-99.99,,2013-08-12 18:48:00,
2013-08-12 11:56:00,92.0,0.0,29.95,SSE,165,3.0,12.0,21,-99.99,,,-99.99,,2013-08-12 18:56:00,
2013-08-12 12:04:00,93.0,0.0,29.95,SSW,193,6.0,12.0,17,-99.99,,,-99.99,,2013-08-12 19:04:00,
2013-08-12 12:12:00,92.0,0.0,29.94,SSW,200,9.0,12.0,17,-99.99,,,-99.99,,2013-08-12 19:12:00,
2013-08-12 12:20:00,93.0,0.0,29.94,SSE,148,9.0,12.0,18,-99.99,,,-99.99,,2013-08-12 19:20:00,
2013-08-12 12:28:00,93.0,0.0,29.94,South,186,6.0,12.0,18,-99.99,,,-99.99,,2013-08-12 19:28:00,
2013-08-12 12:36:00,94.0,0.0,29.93,SSE,165,7.0,10.0,15,-99.99,,,-99.99,,2013-08-12 19:36:00,
2013-08-12 12:44:00,94.0,0.0,29.93,SSW,203,9.0,14.0,15,-99.99,,,-99.99,,2013-08-12 19:44:00,
2013-08-12 12:52:00,95.0,0.0,29.93,SSE,154,12.0,12.0,19,-99.99,,,-99.99,,2013-08-12 19:52:00,
2013-08-12 13:00:00,94.0,0.0,29.93,SE,125,5.0,13.0,15,-99.99,,,-99.99,,2013-08-12 20:00:00,
2013-08-12 13:08:00,96.0,0.0,29.92,SSE,151,5.0,15.0,15,-99.99,,,-99.99,,2013-08-12 20:08:00,
2013-08-12 13:16:00,96.0,0.0,29.92,SSE,155,6.0,12.0,15,-99.99,,,-99.99,,2013-08-12 20:16:00,
2013-08-12 13:24:00,96.0,0.0,29.92,SSE,166,7.0,15.0,16,-99.99,,,-99.99,,2013-08-12 20:24:00,
2013-08-12 13:32:00,97.0,0.0,29.91,SSE,158,10.0,16.0,14,-99.99,,,-99.99,,2013-08-12 20:32:00,
2013-08-12 13:40:00,97.0,0.0,29.91,South,175,7.0,12.0,15,-99.99,,,-99.99,,2013-08-12 20:40:00,
2013-08-12 13:48:00,98.0,0.0,29.90,South,180,8.0,13.0,13,-99.99,,,-99.99,,2013-08-12 20:48:00,
2013-08-12 13:56:00,97.0,0.0,29.90,WSW,238,5.0,15.0,13,-99.99,,,-99.99,,2013-08-12 20:56:00,
2013-08-12 14:04:00,97.0,0.0,29.89,SSW,202,7.0,15.0,15,-99.99,,,-99.99,,2013-08-12 21:04:00,
2013-08-12 14:12:00,98.0,0.0,29.89,South,174,8.0,16.0,13,-99.99,,,-99.99,,2013-08-12 21:12:00,
2013-08-12 14:20:00,97.0,0.0,29.89,SE,142,7.0,14.0,15,-99.99,,,-99.99,,2013-08-12 21:20:00,
2013-08-12 14:28:00,98.0,0.0,29.89,SE,141,14.0,18.0,14,-99.99,,,-99.99,,2013-08-12 21:28:00,
2013-08-12 14:36:00,98.0,0.0,29.89,ESE,113,9.0,17.0,16,-99.99,,,-99.99,,2013-08-12 21:36:00,
2013-08-12 14:44:00,97.0,0.0,29.88,East,87,5.0,13.0,15,-99.99,,,-99.99,,2013-08-12 21:44:00,
2013-08-12 14:52:00,98.0,0.0,29.88,SSE,166,14.0,15.0,11,-99.99,,,-99.99,,2013-08-12 21:52:00,
2013-08-12 15:00:00,100.0,0.0,29.88,SSE,163,13.0,18.0,13,-99.99,,,-99.99,,2013-08-12 22:00:00,
2013-08-12 15:08:00,98.0,0.0,29.88,SSW,199,6.0,18.0,11,-99.99,,,-99.99,,2013-08-12 22:08:00,
2013-08-12 15:16:00,98.0,0.0,29.87,ESE,113,3.0,12.0,13,-99.99,,,-99.99,,2013-08-12 22:16:00,
2013-08-12 15:24:00,98.0,0.0,29.87,South,172,10.0,13.0,13,-99.99,,,-99.99,,2013-08-12 22:24:00,
2013-08-12 15:32:00,98.0,0.0,29.87,South,182,10.0,16.0,13,-99.99,,,-99.99,,2013-08-12 22:32:00,
2013-08-12 15:40:00,99.0,0.0,29.87,SE,141,8.0,16.0,13,-99.99,,,-99.99,,2013-08-12 22:40:00,
2013-08-12 15:48:00,100.0,0.0,29.87,SSE,155,10.0,20.0,12,-99.99,,,-99.99,,2013-08-12 22:48:00,
2013-08-12 15:56:00,98.0,0.0,29.86,South,169,7.0,16.0,10,-99.99,,,-99.99,,2013-08-12 22:56:00,
2013-08-12 16:04:00,99.0,0.0,29.86,SSE,162,8.0,12.0,12,-99.99,,,-99.99,,2013-08-12 23:04:00,
2013-08-12 16:12:00,100.0,0.0,29.85,SSE,168,9.0,20.0,10,-99.99,,,-99.99,,2013-08-12 23:12:00,
2013-08-12 16:20:00,99.0,0.0,29.85,ESE,113,8.0,14.0,14,-99.99,,,-99.99,,2013-08-12 23:20:00,
2013-08-12 16:28:00,98.0,0.0,29.85,SE,131,7.0,14.0,13,-99.99,,,-99.99,,2013-08-12 23:28:00,
2013-08-12 16:36:00,98.0,0.0,29.84,East,89,6.0,14.0,10,-99.99,,,-99.99,,2013-08-12 23:36:00,
2013-08-12 16:44:00,98.0,0.0,29.84,SE,126,7.0,14.0,11,-99.99,,,-99.99,,2013-08-12 23:44:00,
2013-08-12 16:52:00,100.0,0.0,29.84,SSE,167,8.0,13.0,10,-99.99,,,-99.99,,2013-08-12 23:52:00,
2013-08-12 17:00:00,100.0,0.0,29.84,SSE,165,12.0,16.0,12,-99.99,,,-99.99,,2013-08-13 00:00:00,
2013-08-12 17:05:00,99.0,0.0,29.84,SE,137,7.0,15.0,10,-99.99,,,-99.99,,2013-08-13 00:05:00,
2013-08-12 17:12:00,99.0,0.0,29.84,SSE,159,3.0,14.0,12,-99.99,,,-99.99,,2013-08-13 00:12:00,
2013-08-12 17:20:00,99.0,0.0,29.83,SSE,148,8.0,14.0,10,-99.99,,,-99.99,,2013-08-13 00:20:00,
2013-08-12 17:28:00,100.0,0.0,29.83,SSE,165,13.0,18.0,12,-99.99,,,-99.99,,2013-08-13 00:28:00,
2013-08-12 17:36:00,99.0,0.0,29.83,SSW,198,13.0,18.0,13,-99.99,,,-99.99,,2013-08-13 00:36:00,
2013-08-12 17:44:00,99.0,0.0,29.83,SE,140,6.0,16.0,14,-99.99,,,-99.99,,2013-08-13 00:44:00,
2013-08-12 17:52:00,99.0,0.0,29.83,South,186,6.0,17.0,14,-99.99,,,-99.99,,2013-08-13 00:52:00,
2013-08-12 18:00:00,98.0,0.0,29.83,SSW,204,3.0,14.0,16,-99.99,,,-99.99,,2013-08-13 01:00:00,
2013-08-12 18:08:00,99.0,0.0,29.83,SW,216,8.0,16.0,14,-99.99,,,-99.99,,2013-08-13 01:08:00,
2013-08-12 18:16:00,98.0,0.0,29.83,SW,215,10.0,13.0,14,-99.99,,,-99.99,,2013-08-13 01:16:00,
2013-08-12 18:24:00,98.0,0.0,29.83,South,184,14.0,16.0,13,-99.99,,,-99.99,,2013-08-13 01:24:00,
2013-08-12 18:32:00,98.0,0.0,29.82,SW,223,10.0,15.0,13,-99.99,,,-99.99,,2013-08-13 01:32:00,
2013-08-12 18:40:00,98.0,0.0,29.82,SSE,157,16.0,20.0,14,-99.99,,,-99.99,,2013-08-13 01:40:00,
2013-08-12 18:48:00,98.0,0.0,29.82,SSW,195,16.0,21.0,13,-99.99,,,-99.99,,2013-08-13 01:48:00,
2013-08-12 18:56:00,97.0,0.0,29.82,SSW,209,14.0,18.0,13,-99.99,,,-99.99,,2013-08-13 01:56:00,
2013-08-12 19:04:00,97.0,0.0,29.82,SW,229,7.0,20.0,17,-99.99,,,-99.99,,2013-08-13 02:04:00,
2013-08-12 19:12:00,96.0,0.0,29.82,West,262,14.0,16.0,13,-99.99,,,-99.99,,2013-08-13 02:12:00,
2013-08-12 19:20:00,95.0,0.0,29.83,SW,233,12.0,17.0,15,-99.99,,,-99.99,,2013-08-13 02:20:00,
2013-08-12 19:28:00,94.0,0.0,29.83,West,261,10.0,17.0,17,-99.99,,,-99.99,,2013-08-13 02:28:00,
2013-08-12 19:36:00,94.0,0.0,29.83,West,269,8.0,15.0,15,-99.99,,,-99.99,,2013-08-13 02:36:00,
2013-08-12 19:44:00,92.0,0.0,29.84,West,266,7.0,12.0,16,-99.99,,,-99.99,,2013-08-13 02:44:00,
2013-08-12 19:52:00,91.0,0.0,29.84,WSW,255,7.0,10.0,16,-99.99,,,-99.99,,2013-08-13 02:52:00,
2013-08-12 20:00:00,90.0,0.0,29.84,WSW,238,7.0,9.0,14,-99.99,,,-99.99,,2013-08-13 03:00:00,
2013-08-12 20:08:00,89.0,0.0,29.84,SW,236,6.0,7.0,17,-99.99,,,-99.99,,2013-08-13 03:08:00,
2013-08-12 20:16:00,88.0,0.0,29.85,SW,234,8.0,9.0,15,-99.99,,,-99.99,,2013-08-13 03:16:00,
2013-08-12 20:24:00,89.0,0.0,29.85,SW,227,5.0,10.0,16,-99.99,,,-99.99,,2013-08-13 03:24:00,
2013-08-12 20:32:00,87.0,0.0,29.85,WSW,249,7.0,8.0,17,-99.99,,,-99.99,,2013-08-13 03:32:00,
2013-08-12 20:40:00,86.0,0.0,29.86,WSW,240,6.0,8.0,16,-99.99,,,-99.99,,2013-08-13 03:40:00,
2013-08-12 20:48:00,86.0,0.0,29.86,SW,234,6.0,8.0,19,-99.99,,,-99.99,,2013-08-13 03:48:00,
2013-08-12 20:56:00,85.0,0.0,29.86,WSW,245,7.0,8.0,18,-99.99,,,-99.99,,2013-08-13 03:56:00,
2013-08-12 21:04:00,84.0,0.0,29.86,WSW,245,7.0,8.0,21,-99.99,,,-99.99,,2013-08-13 04:04:00,
2013-08-12 21:08:00,84.0,0.0,29.87,SSW,209,5.0,8.0,21,-99.99,,,-99.99,,2013-08-13 04:08:00,
2013-08-12 21:12:00,84.0,0.0,29.87,SW,230,7.0,8.0,19,-99.99,,,-99.99,,2013-08-13 04:12:00,
2013-08-12 21:20:00,82.0,0.0,29.87,SSW,202,9.0,10.0,21,-99.99,,,-99.99,,2013-08-13 04:20:00,
2013-08-12 21:28:00,83.0,0.0,29.87,SSW,209,8.0,10.0,23,-99.99,,,-99.99,,2013-08-13 04:28:00,
2013-08-12 21:36:00,83.0,0.0,29.88,SSW,207,6.0,9.0,23,-99.99,,,-99.99,,2013-08-13 04:36:00,
2013-08-12 21:44:00,83.0,0.0,29.88,SSW,207,6.0,8.0,21,-99.99,,,-99.99,,2013-08-13 04:44:00,
2013-08-12 21:52:00,84.0,0.0,29.88,SSW,196,3.0,8.0,23,-99.99,,,-99.99,,2013-08-13 04:52:00,
2013-08-12 22:00:00,82.0,0.0,29.88,SW,219,5.0,5.0,24,-99.99,,,-99.99,,2013-08-13 05:00:00,
2013-08-12 22:08:00,82.0,0.0,29.88,WSW,244,6.0,8.0,21,-99.99,,,-99.99,,2013-08-13 05:08:00,
2013-08-12 22:16:00,83.0,0.0,29.89,SE,138,1.0,9.0,21,-99.99,,,-99.99,,2013-08-13 05:16:00,
2013-08-12 22:24:00,82.0,0.0,29.88,WSW,238,0.0,7.0,22,-99.99,,,-99.99,,2013-08-13 05:24:00,
2013-08-12 22:32:00,80.0,0.0,29.89,SSE,164,6.0,8.0,21,-99.99,,,-99.99,,2013-08-13 05:32:00,
2013-08-12 22:40:00,80.0,0.0,29.89,SE,139,3.0,8.0,21,-99.99,,,-99.99,,2013-08-13 05:40:00,
2013-08-12 22:48:00,79.0,0.0,29.89,SSE,159,3.0,5.0,23,-99.99,,,-99.99,,2013-08-13 05:48:00,
2013-08-12 22:56:00,79.0,0.0,29.89,South,171,6.0,7.0,24,-99.99,,,-99.99,,2013-08-13 05:56:00,
2013-08-12 23:04:00,78.0,0.0,29.89,SSE,168,7.0,8.0,23,-99.99,,,-99.99,,2013-08-13 06:04:00,
2013-08-12 23:12:00,76.0,0.0,29.89,South,177,7.0,8.0,25,-99.99,,,-99.99,,2013-08-13 06:12:00,
2013-08-12 23:20:00,78.0,0.0,29.89,South,170,8.0,8.0,23,-99.99,,,-99.99,,2013-08-13 06:20:00,
2013-08-12 23:28:00,76.0,0.0,29.89,SSE,153,2.0,8.0,28,-99.99,,,-99.99,,2013-08-13 06:28:00,
2013-08-12 23:36:00,77.0,0.0,29.89,SSW,212,5.0,6.0,27,-99.99,,,-99.99,,2013-08-13 06:36:00,
2013-08-12 23:44:00,75.0,0.0,29.89,ENE,63,2.0,6.0,26,-99.99,,,-99.99,,2013-08-13 06:44:00,
2013-08-12 23:52:00,74.0,0.0,29.89,WSW,247,1.0,5.0,27,-99.99,,,-99.99,,2013-08-13 06:52:00,